Waarnemingen

Advertentie
Mijn weer
UFS Deutsche Bucht, Duitsland (10007): temperatuur & dauwpunt: 13.07.2018 23:00:00 - 19.07.2018 23:00:00 (CEST)UFS Deutsche Bucht, Duitsland (10007): windsnelheid: 13.07.2018 23:00:00 - 19.07.2018 23:00:00 (CEST)UFS Deutsche Bucht, Duitsland (10007): windrichting: 13.07.2018 23:00:00 - 19.07.2018 23:00:00 (CEST)UFS Deutsche Bucht, Duitsland (10007): luchtdruk: 13.07.2018 23:00:00 - 19.07.2018 23:00:00 (CEST)UFS Deutsche Bucht, Duitsland (10007): zicht: 13.07.2018 23:00:00 - 19.07.2018 23:00:00 (CEST)UFS Deutsche Bucht, Duitsland (10007): Zonneschijnduur: 13.07.2018 23:00:00 - 19.07.2018 23:00:00 (CEST)
Datum & Tijd tt [°C] td [°C] ff [km/u] ff [kn] dd ppp [hPa] vv [km] sd [min]
19.07.2018 23:00:00 - - - - - - - -
19.07.2018 22:00:00 17,3 12,5 22 12 NNO 1018,7 10 0
19.07.2018 21:00:00 17,5 12,7 22 12 NNO 1018,5 10 60
19.07.2018 20:00:00 17,6 12,2 18 10 N 1018,9 10 60
19.07.2018 19:00:00 17,5 12,3 18 10 N 1019,0 2,1 60
19.07.2018 18:00:00 17,5 11,6 14 8 N 1019,5 10 60
19.07.2018 17:00:00 17,5 12,3 14 8 N 1019,8 10 60
19.07.2018 16:00:00 17,6 13,0 14 8 N 1019,9 10 60
19.07.2018 15:00:00 17,5 13,0 11 6 N 1019,9 10 60
19.07.2018 14:00:00 17,5 13,0 11 6 N 1020,3 10 60
19.07.2018 13:00:00 17,5 13,4 11 6 NNW 1020,4 10 60
19.07.2018 12:00:00 17,7 13,7 11 6 N 1020,4 10 60
19.07.2018 11:00:00 17,7 13,8 11 6 NW 1020,3 10 30
19.07.2018 10:00:00 17,6 14,5 14 8 N 1020,2 10 6
19.07.2018 09:00:00 17,6 14,9 11 6 NW 1020,1 10 0
19.07.2018 08:00:00 17,6 14,5 7 4 WNW 1019,9 10 24
19.07.2018 07:00:00 17,4 14,2 7 4 NW 1019,9 10 48
19.07.2018 06:00:00 17,5 13,6 7 4 NW 1019,6 10 0
19.07.2018 05:00:00 17,3 14,0 7 4 NNW 1019,5 10 0
19.07.2018 04:00:00 17,2 14,5 14 8 NNW 1019,7 10 0
19.07.2018 03:00:00 17,4 14,1 7 4 N 1019,6 10 0
19.07.2018 02:00:00 17,5 14,2 7 4 N 1019,7 10 0
19.07.2018 01:00:00 17,6 14,1 7 4 N 1019,9 10 0
19.07.2018 00:00:00 17,6 14,1 7 4 NNW 1020,0 10 0
18.07.2018 23:00:00 17,8 14,0 7 4 NNO 1019,9 10 0
18.07.2018 22:00:00 17,9 13,5 11 6 N 1019,7 10 30
18.07.2018 21:00:00 17,9 13,9 14 8 N 1019,4 10 60
18.07.2018 20:00:00 17,9 13,9 14 8 N 1019,2 10 60
18.07.2018 19:00:00 18,0 14,5 11 6 N 1019,1 10 60
18.07.2018 18:00:00 17,9 14,3 11 6 NNW 1019,4 9 60
18.07.2018 17:00:00 17,7 13,9 14 8 NW 1019,5 10 60
18.07.2018 16:00:00 17,5 14,0 14 8 NW 1019,3 10 60
18.07.2018 15:00:00 17,4 13,8 18 10 WNW 1019,2 10 60
18.07.2018 14:00:00 17,4 13,6 14 8 NW 1019,2 10 60
18.07.2018 13:00:00 17,3 13,6 18 10 NW 1019,0 10 60
18.07.2018 12:00:00 17,2 13,5 22 12 NW 1018,7 10 60
18.07.2018 11:00:00 17,4 13,8 25 14 NW 1018,4 10 60
18.07.2018 10:00:00 17,5 14,2 29 16 NW 1018,0 10 48
18.07.2018 09:00:00 17,3 14,1 29 16 NW 1017,5 10 54
18.07.2018 08:00:00 17,4 14,7 29 16 NW 1016,8 10 48
18.07.2018 07:00:00 17,4 14,7 32 18 WNW 1016,4 10 18
18.07.2018 06:00:00 17,4 15,3 29 16 WNW 1016,0 10 0
18.07.2018 05:00:00 17,6 15,3 29 16 WNW 1015,7 10 0
18.07.2018 04:00:00 17,7 15,7 25 14 WNW 1015,5 10 0
18.07.2018 03:00:00 17,5 16,3 29 16 W 1015,3 10 0
18.07.2018 02:00:00 17,3 15,9 29 16 W 1015,4 10 0
18.07.2018 01:00:00 17,3 15,6 25 14 WZW 1015,5 10 0
18.07.2018 00:00:00 17,1 14,7 25 14 WZW 1015,5 10 0
17.07.2018 23:00:00 17,5 14,7 25 14 WZW 1015,7 10 0
17.07.2018 22:00:00 17,1 14,7 29 16 WZW 1015,4 10 0
17.07.2018 21:00:00 17,4 15,7 32 18 W 1015,1 10 54
17.07.2018 20:00:00 18,0 16,3 29 16 W 1014,5 10 60
17.07.2018 19:00:00 18,3 15,9 32 18 W 1014,2 10 60
17.07.2018 18:00:00 19,3 16,1 32 18 W 1013,8 10 60
17.07.2018 17:00:00 21,4 16,7 14 8 W 1013,6 10 60
17.07.2018 16:00:00 23,8 19,5 7 4 O 1013,0 10 60
17.07.2018 15:00:00 22,8 19,9 7 4 O 1013,2 9 60
17.07.2018 14:00:00 21,4 18,9 7 4 OZO 1013,6 9 60
17.07.2018 13:00:00 20,3 17,7 7 4 ZO 1013,7 9 60
17.07.2018 12:00:00 20,0 17,7 7 4 Z 1013,6 10 60
17.07.2018 11:00:00 19,0 17,2 11 6 ZZO 1013,8 10 60
17.07.2018 10:00:00 18,9 17,0 11 6 ZZO 1013,6 10 60
17.07.2018 09:00:00 18,9 17,0 14 8 OZO 1013,4 10 60
17.07.2018 08:00:00 18,9 16,6 11 6 OZO 1013,5 10 60
17.07.2018 07:00:00 18,6 16,7 7 4 O 1013,2 10 48
17.07.2018 06:00:00 18,7 16,8 11 6 O 1013,1 10 6
17.07.2018 05:00:00 18,7 16,5 11 6 ONO 1013,0 10 0
17.07.2018 04:00:00 18,8 16,4 11 6 ONO 1013,3 10 0
17.07.2018 03:00:00 18,9 16,3 11 6 ONO 1013,5 10 0
17.07.2018 02:00:00 19,0 15,7 14 8 ONO 1013,9 10 0
17.07.2018 01:00:00 19,2 15,4 18 10 ONO 1014,1 10 0
17.07.2018 00:00:00 19,2 15,5 22 12 ONO 1014,1 10 0
16.07.2018 23:00:00 19,3 15,7 18 10 NO 1014,2 10 0
16.07.2018 22:00:00 19,4 16,0 14 8 NO 1014,3 10 42
16.07.2018 21:00:00 19,7 15,6 14 8 NO 1014,1 10 60
16.07.2018 20:00:00 19,6 16,0 18 10 NO 1014,0 10 60
16.07.2018 19:00:00 19,6 16,2 14 8 NNO 1014,1 10 60
16.07.2018 18:00:00 19,5 16,5 14 8 N 1014,4 10 60
16.07.2018 17:00:00 19,4 16,3 14 8 N 1014,6 10 60
16.07.2018 16:00:00 19,1 16,2 11 6 NNO 1015,1 10 60
16.07.2018 15:00:00 18,9 16,6 11 6 NNO 1015,5 10 60
16.07.2018 14:00:00 19,0 15,0 7 4 NO 1015,9 10 60
16.07.2018 13:00:00 20,0 15,5 7 4 O 1016,2 10 60
16.07.2018 12:00:00 20,3 17,5 11 6 O 1016,2 10 60
16.07.2018 11:00:00 19,2 16,7 11 6 OZO 1016,4 10 60
16.07.2018 10:00:00 18,2 16,1 11 6 O 1016,4 10 60
16.07.2018 09:00:00 18,1 15,6 11 6 O 1016,5 10 60
16.07.2018 08:00:00 17,9 15,2 14 8 O 1016,4 10 60
16.07.2018 07:00:00 17,9 15,4 11 6 O 1016,5 10 60
16.07.2018 06:00:00 17,6 15,3 11 6 O 1016,4 10 12
16.07.2018 05:00:00 17,6 15,3 11 6 O 1016,4 10 0
16.07.2018 04:00:00 17,5 15,2 14 8 ONO 1016,7 10 0
16.07.2018 03:00:00 17,3 15,0 14 8 ONO 1016,9 10 0
16.07.2018 02:00:00 17,5 14,4 14 8 ONO 1017,4 10 0
16.07.2018 01:00:00 17,7 13,2 14 8 ONO 1017,7 10 0
16.07.2018 00:00:00 17,8 13,4 11 6 ONO 1017,7 10 0
15.07.2018 23:00:00 17,8 14,3 11 6 ONO 1017,8 10 0
15.07.2018 22:00:00 17,8 14,3 11 6 ONO 1017,8 10 42
15.07.2018 21:00:00 18,2 13,1 11 6 ONO 1017,7 10 60
15.07.2018 20:00:00 18,3 12,6 11 6 NO 1017,7 10 60
15.07.2018 19:00:00 18,3 11,9 7 4 NO 1018,0 10 60
15.07.2018 18:00:00 18,2 12,2 7 4 NO 1018,3 10 60
15.07.2018 17:00:00 18,1 12,1 7 4 O 1018,5 10 60
15.07.2018 16:00:00 17,8 12,0 4 2 O 1018,7 10 60
15.07.2018 15:00:00 19,7 13,5 4 2 ZZW 1019,0 10 60
15.07.2018 14:00:00 17,2 12,8 4 2 ZZW 1019,3 9 60
15.07.2018 13:00:00 16,7 13,0 7 4 ZZW 1019,6 10 60
15.07.2018 12:00:00 16,4 13,0 11 6 ZW 1019,8 10 60
15.07.2018 11:00:00 16,2 13,5 11 6 ZW 1019,7 10 60
15.07.2018 10:00:00 16,2 13,5 11 6 WZW 1019,7 10 60
15.07.2018 09:00:00 16,2 12,8 11 6 ZZW 1019,7 10 60
15.07.2018 08:00:00 16,2 12,5 11 6 ZW 1019,6 10 60
15.07.2018 07:00:00 16,1 12,6 7 4 ZZW 1019,4 10 60
15.07.2018 06:00:00 15,9 13,3 11 6 WZW 1019,2 10 18
15.07.2018 05:00:00 15,8 13,0 11 6 WZW 1019,3 10 0
15.07.2018 04:00:00 15,8 12,3 7 4 W 1019,5 10 0
15.07.2018 03:00:00 15,9 12,4 7 4 WZW 1019,4 10 0
15.07.2018 02:00:00 15,9 12,4 4 2 W 1019,6 10 0
15.07.2018 01:00:00 15,9 12,2 4 2 WZW 1019,9 10 0
15.07.2018 00:00:00 15,9 12,2 4 2 WNW 1020,1 10 0
14.07.2018 23:00:00 16,0 12,5 7 4 NNW 1020,4 10 0
14.07.2018 22:00:00 16,2 12,7 11 6 NW 1020,3 10 54
14.07.2018 21:00:00 16,2 11,6 11 6 NNW 1020,1 1,9 60
14.07.2018 20:00:00 16,1 12,2 14 8 NNW 1020,3 10 60
14.07.2018 19:00:00 16,1 12,0 14 8 NNW 1020,6 10 60
14.07.2018 18:00:00 16,0 11,8 11 6 NW 1020,7 10 60
14.07.2018 17:00:00 15,9 11,5 14 8 NNW 1020,9 10 54
14.07.2018 16:00:00 15,9 11,8 11 6 NW 1021,1 10 60
14.07.2018 15:00:00 15,9 12,0 11 6 NW 1021,3 10 60
14.07.2018 14:00:00 15,8 11,9 14 8 NW 1021,5 10 60
14.07.2018 13:00:00 15,6 12,1 14 8 NW 1021,5 10 48
14.07.2018 12:00:00 15,6 11,8 14 8 WNW 1021,6 10 0
14.07.2018 11:00:00 15,0 12,6 22 12 NNW 1021,6 10 0
14.07.2018 10:00:00 15,8 11,3 18 10 W 1021,4 10 0
14.07.2018 09:00:00 15,7 12,1 7 4 WNW 1021,4 10 0
14.07.2018 08:00:00 15,5 12,5 14 8 NNW 1021,2 10 0
14.07.2018 07:00:00 15,7 12,0 18 10 W 1020,8 10 0
14.07.2018 06:00:00 15,6 12,1 18 10 NW 1020,8 10 0
14.07.2018 05:00:00 15,6 12,2 18 10 WNW 1020,8 10 0
14.07.2018 04:00:00 15,7 12,8 14 8 NNW 1020,8 10 0
14.07.2018 03:00:00 15,7 12,7 14 8 NW 1020,9 10 0
14.07.2018 02:00:00 15,8 13,0 11 6 WNW 1021,0 10 0
14.07.2018 01:00:00 15,6 12,7 7 4 NW 1021,4 10 0
14.07.2018 00:00:00 16,0 11,9 14 8 NW 1021,4 10 0
13.07.2018 23:00:00 15,9 11,8 18 10 WNW 1021,4 10 0

tt = temperatuur
td = dauwpunt
ff = windsnelheid
dd = windrichting
ppp = luchtdruk
vv = zicht
sd = Zonneschijnduur

Weerstations in de omgeving